Location: Clinton NY
(43.0598°N, 75.3602°W)
Time: 16:43:17
(UTC-04:00)

Iridium 11 - Visible Passes

Search period start: 28 August 2016 00:00
Search period end: 07 September 2016 00:00
Orbit: 776 x 779 km, 86.4° (Epoch: 28 August)

Date Brightness Start Highest point End Pass type
(mag) Time Alt. Az. Time Alt. Az. Time Alt. Az.
28 Aug 6.9 03:09:41 29° ESE 03:10:56 32° E 03:15:32 10° NNE visible
28 Aug 6.4 04:50:10 26° WSW 04:51:37 30° WNW 04:56:12 10° NNW visible
29 Aug 7.7 02:36:37 17° E 02:37:41 18° ENE 02:41:11 10° NE visible
29 Aug 5.6 04:17:07 49° WSW 04:17:56 54° W 04:23:04 10° N visible
30 Aug 5.4 03:44:02 78° SSE 03:44:22 84° E 03:49:37 10° N visible
30 Aug 7.4 05:24:32 11° W 05:25:48 12° WNW 05:27:46 10° NW visible
31 Aug 6.3 03:10:56 46° E 03:10:56 46° E 03:15:54 10° NNE visible
31 Aug 6.8 04:51:26 21° W 04:51:53 22° WNW 04:55:52 10° NNW visible
01 Sep 7.3 02:37:50 26° ENE 02:37:50 26° ENE 02:41:52 10° NNE visible
01 Sep 6.1 04:18:19 37° WNW 04:18:19 37° WNW 04:22:58 10° NNW visible
02 Sep 8.0 02:04:42 15° ENE 02:04:42 15° ENE 02:07:11 10° NE visible
02 Sep 5.7 03:45:11 60° NW 03:45:11 60° NW 03:49:42 10° N visible
03 Sep 6.2 03:12:03 52° NE 03:12:03 52° NE 03:16:09 10° N visible
03 Sep 7.3 04:52:32 15° WNW 04:52:32 15° WNW 04:55:13 10° NW visible
04 Sep 7.1 02:38:53 32° NE 02:38:53 32° NE 02:42:20 10° NNE visible
04 Sep 6.8 04:19:23 25° WNW 04:19:23 25° WNW 04:22:46 10° NNW visible
05 Sep 7.8 02:05:43 19° ENE 02:05:43 19° ENE 02:08:06 10° NNE visible
05 Sep 6.5 03:46:12 36° NW 03:46:12 36° NW 03:49:41 10° N visible
06 Sep 8.3 01:32:32 10° ENE 01:32:32 10° ENE 01:32:45 10° ENE visible
06 Sep 6.6 03:13:01 40° N 03:13:01 40° N 03:16:19 10° N visible
06 Sep 7.7 04:53:30 10° WNW 04:53:30 10° WNW 04:53:31 10° WNW visible
